Regional Weather Roundup
Issued by NWS Albany, NY

Home | Current Version | Previous Version | Text Only | Print | Product List | Glossary On
Versions: 1 2 3 4 5 6 7 8 9 10 11 12 13 14 15 16 17 18 19 20 21 22 23 24 25 26 27 28 29 30 31 32 33 34 35 36 37 38 39 40 41 42 43 44 45 46 47 48 49 50
000
ASUS41 KALY 250410
RWRALY

NEW YORK STATE HOURLY WEATHER ROUNDUP
NATIONAL WEATHER SERVICE ALBANY NY
1200 AM EDT MON SEP 25 2017

NOTE: "FAIR" INDICATES FEW OR NO CLOUDS BELOW 12,000 FEET WITH NO
SIGNIFICANT WEATHER AND/OR NO OBSTRUCTIONS TO VISIBILITY.

NYZ032-033-038>043-046>054-057>066-NYZ062>081-082-084-250500-
EAST


CITY           SKY/WX    TMP DP  RH WIND       PRES   REMARKS
ALBANY         CLEAR     70  67  90 NE3       30.06S
GLENS FALLS    CLEAR     67  65  93 CALM      30.07S
POUGHKEEPSIE   CLEAR     67  65  93 CALM      30.05S
NEWBURGH       CLEAR     72  68  88 CALM      30.08S
MONTGOMERY     CLEAR     67  66  97 CALM      30.06S FOG
WHITE PLAINS   CLEAR     70  66  87 NW5       30.05F
ISLIP          CLEAR     70  62  76 CALM      30.05F
NEW YORK CITY  CLEAR     76  64  66 CALM      30.03F
CENTRAL PARK   CLEAR     77  63  61 CALM      30.07F
$$

NYZ005>009-017-018-044>046-055-056-250500-
CENTRAL


CITY           SKY/WX    TMP DP  RH WIND       PRES   REMARKS
FULTON         FOG       64  64 100 CALM      30.10S VSB 1/2
SYRACUSE       CLEAR     68  66  93 CALM      30.09S
ROME           CLEAR     66  65  96 CALM      30.11S FOG
ELMIRA         CLEAR     65  65 100 SW3       30.12S FOG
BINGHAMTON     CLEAR     70  65  84 CALM      30.15S
MONTICELLO     CLEAR     68  64  87 NW3       30.14S
$$

NYZ026>034-041>043-087-250500-
NORTH


CITY           SKY/WX    TMP DP  RH WIND       PRES   REMARKS
WATERTOWN      CLEAR     65  64  97 CALM      30.08F FOG
FORT DRUM      NOT AVBL
OGDENSBURG     FAIR      67  65  95 CALM      30.07S FOG
MASSENA        CLEAR     67  67 100 SW3       30.07F FOG
SARANAC LAKE   FOG       55  55 100 CALM      30.15S VSB 3/4
PLATTSBURGH    PTCLDY    67  65  93 S3        30.06S
$$

NYZ001>004-010>016-019>021-085-250500-
WEST


CITY           SKY/WX    TMP DP  RH WIND       PRES   REMARKS
NIAGARA FALLS  CLEAR     73  66  78 CALM      30.10S
BUFFALO        CLEAR     73  68  84 SE3       30.11S
DUNKIRK        CLEAR     66  64  93 CALM      30.11S
JAMESTOWN      CLEAR     73  65  75 NE6       30.17F
WELLSVILLE     CLEAR     67  63  87 CALM      30.20F FOG
ROCHESTER      CLEAR     71  70  96 SW5       30.10F
PENN YAN       CLEAR     69  66  90 SW5       30.13F
$$

             KEY
       WCI = WIND CHILL INDEX
       VSB = VISIBILITY
       HX  = HEAT INDEX
$$



USA.gov is the U.S. government's official web portal to all federal, state and local government web resources and services.